Presure
114 110 125 130 137 136 116 108 109 114 118 122 111 118 116 128 115 107 115 125 115 132 137 126 141 110 115 126 125 104 121 115 103 116 102 108 112 107 108 104 118 114 116 116 115 111 110 109 110
116 123 120 119 140 135 119 116 95 111 118 115 125 118 122 124 110 117 108 116 125 126 140 146 131 142 114 122 132 116 121 108 106 111 109 105 113 106 111 106 110 107 101 100 115 110 109 114 119
124 110 111 127 127 119 106 110 120 113 118 124 119 128 124 111 87 117 127 120 128 130 139 120 132 114 123 122 126 119 127 119 113 109 115 108 106 110 104 111 107 109 105 92 95 102 99 124 108
107 113 108 130 114 111 108 118 117 121 95 126 118 126 130 118 124 90 90 113 119 129 102 119 134 115 126 125 124 131 132 115 96 113 114 115 104 109 108 113 105 101 97 103 106 102 96 113 118
114 152 121 116 120 128 104 104 106 119 108 106 112 120 123 95 135 104 97 97 123 121 115 113 118 130 121 124 119 121 136 117 120 120 118 110 117 109 102 102 103 103 105 112 107 107 104 103 113
109 135 139 103 114 115 109 107 115 117 111 119 122 119 124 122 131 120 109 99 115 111 121 115 117 111 125 129 126 124 131 138 102 109 127 126 103 115 106 104 102 101 97 100 99 103 107 117 115
126 112 114 112 145 123 129 81 134 117 110 119 121 122 120 113 128 118 116 115 101 107 115 111 116 111 95 115 117 124 123 128 102 101 102 97 123 121 109 108 101 104 102 93 97 106 101 93 109
189 100 112 95 117 137 130 109 115 113 104 110 122 123 130 136 116 105 117 103 104 105 116 123 111 118 121 95 138 129 129 124 108 96 102 106 108 125 131 116 114 99 114 106 103 97 96 100 102
142 183 148 134 121 109 130 109 107 110 115 111 105 111 118 125 127 123 114 134 117 112 109 115 111 116 121 106 99 125 122 120 121 109 101 105 97 105 100 101 131 139 113 119 108 107 101 102 103
178 188 185 155 144 135 125 110 103 118 114 98 109 107 112 117 110 133 102 138 130 132 127 113 118 122 110 121 107 111 117 119 112 118 108 107 106 103 106 102 97 102 111 118 121 123 113 114 124
245 121 190 165 197 172 125 115 103 105 120 117 120 119 128 133 129 81 125 133 140 116 122 113 112 118 122 121 121 120 111 116 132 123 124 108 111 111 109 113 114 104 99 104 105 117 115 116 126
239 241 237 233 233 214 217 208 122 129 135 138 116 112 124 124 105 89 111 105 133 140 125 124 120 109 115 123 115 113 127 128 110 97 107 100 106 106 109 113 114 122 121 117 116 117 112 118 114
238 247 214 209 213 223 231 142 108 109 103 96 130 110 123 129 115 118 118 105 109 131 118 139 127 109 112 112 119 121 115 123 137 119 102 98 100 107 109 113 114 119 119 127 111 121 118 121 123
227 237 235 221 227 197 191 152 100 153 141 122 103 115 125 80 117 117 83 78 110 126 120 110 121 123 131 120 112 121 126 118 120 120 126 116 109 112 115 110 110 120 118 130 121 127 121 114 120
238 230 232 219 229 219 231 240 192 98 138 128 215 117 130 134 137 107 122 118 126 115 123 111 133 117 124 133 121 111 121 124 131 125 127 115 131 122 115 116 116 107 108 104 119 125 124 110 114
225 209 241 204 228 219 220 203 122 223 195 213 220 70 73 82 128 137 130 123 119 106 114 120 123 122 134 127 130 124 119 113 119 128 129 133 131 135 128 156 114 115 119 122 114 108 113 119 113
232 207 233 224 203 229 210 222 214 210 210 112 206 221 135 119 113 125 128 157 165 169 112 113 131 130 112 120 136 123 130 116 115 117 118 131 132 127 142 155 141 131 122 109 115 119 121 121 122
212 210 220 204 196 233 215 207 220 204 211 213 111 219 207 210 196 100 119 134 132 160 118 85 112 101 118 125 123 132 119 123 129 127 121 116 121 126 134 129 134 136 118 122 115 115 115 115 116
203 222 205 206 211 215 232 215 211 213 207 207 207 107 212 210 204 174 127 104 101 147 176 146 127 123 121 146 130 123 129 135 119 127 127 125 116 118 124 131 133 133 125 116 106 109 115 123 127
226 219 219 205 207 210 206 226 210 210 205 217 207 219 210 214 208 182 122 157 178 126 155 133 137 139 135 119 129 128 134 124 138 130 121 130 121 120 113 119 120 123 128 127 126 126 126 122 117
247 245 236 233 214 223 208 206 210 210 217 210 205 205 222 221 209 204 208 209 208 143 131 131 154 125 147 153 129 141 144 123 120 123 127 121 122 124 125 117 117 116 116 120 123 124 124 130 121
326 249 252 240 230 229 216 211 196 216 207 216 209 210 207 213 215 218 222 224 219 224 218 77 137 133 129 130 115 159 130 126 113 133 125 128 117 136 114 129 121 133 100 102 116 112 115 117 119
275 281 283 242 246 231 220 215 203 202 204 204 215 217 217 214 219 221 221 224 202 228 228 227 125 112 135 129 138 140 144 151 141 210 117 119 121 133 124 123 112 126 124 122 130 119 115 123 131
236 262 264 276 296 230 234 239 227 219 216 212 212 210 212 218 221 223 226 227 229 234 90 248 243 240 199 95 180 138 126 131 153 153 130 137 124 126 125 128 125 127 123 114 111 129 127 126 138
228 235 241 248 258 261 267 234 226 231 231 233 236 239 243 246 250 254 255 255 255 276 280 275 274 200 284 289 207 249 185 153 130 115 105 133 125 122 117 123 127 112 105 129 134 126 119 125 124
231 232 234 236 239 246 254 255 258 262 260 260 260 263 265 270 270 267 264 258 257 247 259 260 264 267 125 270 272 276 163 255 105 129 149 109 158 140 117 121 105 126 134 133 138 141 125 122 113
218 218 224 224 226 229 231 234 238 238 239 238 237 237 236 235 236 236 237 238 239 241 242 246 250 252 142 99 258 245 271 128 127 282 142 143 108 114 139 136 126 130 137 144 149 178 154 146 142
218 211 211 213 211 213 215 213 213 216 218 217 219 218 218 219 222 224 228 232 239 244 243 253 255 258 265 265 259 214 257 195 268 268 129 132 147 114 132 126 123 136 176 163 167 140 142 133 134
206 214 217 218 218 209 200 210 213 213 212 210 210 212 215 218 222 224 226 236 244 264 285 345 313 344 336 340 351 215 294 254 264 235 261 264 251 136 114 121 128 128 121 190 203 151 133 126 132
203 202 204 206 204 205 205 204 207 209 208 207 208 209 212 214 215 223 225 260 116 267 263 275 334 348 329 335 323 335 328 354 252 255 252 91 168 170 284 288 129 251 93 122 96 131 108 127 167
Wind_Speed
51 46 52 49 50 36 32 36 37 43 43 41 29 27 23 25 21 19 19 20 19 17 19 18 17 17 19 18 18 14 20 18 11 18 11 15 16 13 11 9 10 9 8 7 5 5 6 6 7
54 56 48 43 54 31 35 42 43 47 46 38 39 28 24 22 23 24 23 23 23 19 19 20 20 20 21 19 21 20 22 18 13 16 17 15 19 16 14 12 9 8 4 4 6 6 4 7 4
64 49 43 53 42 28 37 41 47 48 48 45 35 40 26 23 19 27 28 28 25 22 20 21 22 21 23 21 22 22 24 23 18 16 20 17 17 19 14 15 11 9 8 4 5 7 7 8 7
56 54 45 57 34 29 36 46 46 50 24 48 35 38 38 24 26 18 16 25 24 23 19 23 23 24 24 22 23 25 26 24 14 22 22 21 16 21 17 17 12 8 8 9 10 9 6 9 8
63 78 59 46 43 43 41 48 45 49 42 37 33 35 30 24 36 30 22 23 29 27 26 25 26 25 25 24 24 26 28 28 24 27 26 19 24 21 16 15 14 11 11 13 11 12 12 11 12
60 77 76 43 43 43 42 48 48 47 47 49 45 38 37 34 37 36 33 29 32 29 28 30 29 27 26 27 28 29 29 31 22 23 30 30 15 25 19 17 17 15 10 11 9 12 14 15 14
75 60 57 49 73 51 52 24 58 50 50 51 47 45 38 35 42 38 36 36 33 34 33 32 31 30 24 27 28 31 31 33 24 23 20 15 29 30 21 22 18 21 18 13 12 17 15 11 16
83 52 52 43 53 67 61 46 52 52 47 46 50 49 50 52 40 32 33 37 38 35 36 36 32 34 33 25 34 34 34 35 29 22 25 24 24 31 32 28 26 18 25 22 19 14 13 16 17
79 82 96 74 60 50 64 48 50 54 57 52 46 45 43 45 48 43 38 40 38 38 36 37 36 35 36 32 27 34 35 35 36 31 26 27 22 25 21 21 31 31 27 27 25 24 19 21 19
86 85 85 65 87 77 60 51 52 59 59 48 54 46 42 41 40 49 40 46 38 42 42 40 39 39 35 39 34 34 35 37 35 37 33 30 29 26 27 24 21 23 25 28 29 29 28 25 30
70 68 91 87 89 79 62 54 60 59 62 61 62 57 59 59 50 37 45 49 51 42 43 42 40 41 41 41 42 41 38 39 40 39 39 34 34 33 30 33 32 27 25 27 27 30 29 29 30
70 72 72 72 76 83 79 84 59 70 77 74 62 57 61 53 43 29 42 41 53 52 45 45 46 41 43 43 43 42 43 43 39 32 35 33 34 33 33 34 34 36 35 34 33 33 32 32 31
66 68 70 75 75 79 75 85 63 63 61 41 69 59 62 65 51 51 51 41 47 53 45 50 48 44 44 43 45 45 43 44 46 44 37 35 35 37 36 37 36 37 36 37 34 36 36 34 35
65 66 70 72 68 77 77 43 55 70 79 74 63 60 70 34 57 55 37 32 46 55 47 45 47 49 50 49 45 47 47 47 48 46 48 45 42 43 42 38 36 40 38 40 37 38 38 36 36
66 64 67 71 64 66 63 68 78 55 80 44 70 69 77 76 75 56 57 55 57 53 54 50 51 51 52 53 51 47 48 49 50 49 50 47 50 47 44 42 41 37 36 36 39 41 40 37 37
64 60 69 64 67 68 67 79 61 66 75 70 71 30 29 39 72 76 71 64 58 56 57 56 53 53 54 54 54 53 51 49 50 51 51 51 51 50 48 51 41 43 44 44 41 39 40 42 39
62 60 62 72 65 71 74 75 79 73 72 48 75 69 62 57 61 72 70 85 83 82 57 59 62 57 56 56 58 55 57 54 52 51 50 51 50 48 52 53 49 48 47 43 44 45 45 45 46
67 66 69 66 68 71 78 71 81 75 75 74 72 70 72 73 74 51 65 77 71 80 62 37 59 47 55 59 59 60 57 57 56 55 53 50 50 49 52 49 50 50 48 47 46 47 48 47 48
69 71 70 70 71 72 78 77 79 80 78 80 80 71 83 82 82 83 78 55 51 89 86 83 70 66 65 80 62 61 61 62 58 56 56 56 53 52 51 51 50 51 54 50 51 52 52 52 54
68 70 74 72 72 73 71 76 77 82 79 83 81 86 86 87 86 83 78 88 73 73 96 72 77 78 74 66 66 64 64 63 64 61 58 59 57 56 53 53 53 54 57 58 58 58 58 57 52
67 70 76 78 73 80 76 74 76 76 80 84 84 84 85 91 92 91 92 91 91 89 76 73 77 68 87 91 76 79 79 66 66 63 61 61 62 61 58 59 59 59 60 61 59 59 60 63 58
8 62 69 79 78 80 79 77 72 78 78 85 86 87 87 90 92 93 94 95 95 98 99 35 84 76 74 73 64 96 76 70 64 65 64 64 64 63 63 63 65 64 55 56 61 58 61 60 61
10 18 33 68 75 81 80 78 76 77 80 81 87 91 95 95 96 98 97 98 92 101 100 102 74 63 79 73 77 78 80 80 80 91 68 68 68 64 67 68 66 70 68 67 70 65 65 65 69
24 14 20 22 23 69 72 76 81 85 87 86 87 87 88 89 90 92 95 96 99 100 44 103 104 103 105 51 94 77 66 77 89 89 72 76 70 70 70 72 73 74 73 68 67 73 72 70 74
28 21 19 20 21 30 37 65 70 72 74 77 78 79 80 82 83 84 84 87 87 83 85 89 90 83 85 86 96 79 101 94 78 65 50 76 72 73 73 77 76 74 59 78 77 76 76 75 72
21 23 23 24 25 25 27 31 36 41 47 50 52 54 55 55 56 59 62 66 68 68 73 76 78 78 55 80 81 82 74 83 56 79 82 52 91 77 73 77 59 85 85 82 83 83 78 76 60
27 29 26 27 28 29 30 31 33 36 39 42 44 47 50 53 55 59 62 64 67 68 70 71 72 74 62 51 78 78 82 76 77 83 78 78 57 67 81 85 83 88 88 89 93 100 83 84 85
28 32 33 33 35 35 35 37 39 40 43 45 47 49 51 54 56 59 62 63 63 61 63 64 67 68 72 73 74 79 79 81 82 81 79 81 82 69 85 88 83 90 94 102 97 89 83 86 87
33 31 30 31 33 36 42 38 37 39 42 46 48 49 51 54 56 57 59 58 56 54 47 28 34 22 26 25 24 32 73 76 77 80 79 81 84 83 74 83 89 86 66 98 105 94 79 78 86
40 39 35 33 33 33 35 40 40 42 44 45 48 50 52 54 56 55 56 48 28 39 40 39 21 16 22 20 25 24 24 27 74 75 75 30 52 84 92 99 100 110 43 74 47 84 53 69 103
Wind_Direction
244 245 247 246 247 229 230 239 243 248 251 251 244 242 237 243 237 243 239 237 236 239 257 238 240 247 248 233 227 247 219 225 249 214 252 248 239 256 249 258 198 226 242 254 252 294 306 317 319
244 245 244 245 246 227 226 235 236 245 245 245 249 246 236 236 238 233 236 231 233 227 249 252 233 241 250 240 229 237 220 245 249 231 229 245 240 259 244 252 238 250 298 332 255 289 312 285 277
243 242 242 245 243 215 228 236 237 245 250 249 250 253 245 237 239 238 232 238 231 230 237 232 236 243 242 238 237 240 225 227 239 242 230 237 252 249 269 249 255 253 280 348 350 326 340 246 302
240 242 237 243 229 210 223 235 238 242 233 251 248 253 254 234 236 236 242 247 244 230 243 230 239 239 238 236 238 238 231 236 255 240 241 233 245 253 256 243 265 274 293 293 288 302 322 284 268
238 245 242 235 238 237 223 240 239 243 246 249 248 251 250 238 251 246 242 247 245 242 236 235 231 232 234 233 235 237 233 238 231 231 235 244 236 246 262 270 275 274 278 257 279 285 294 298 276
240 243 244 219 229 224 224 235 241 242 250 248 249 246 247 243 248 238 235 242 243 242 238 235 234 237 233 233 234 235 231 231 246 245 230 234 245 243 252 259 272 275 271 273 272 281 275 263 273
243 236 233 229 241 236 234 226 232 240 244 247 248 247 245 235 245 238 234 228 240 242 240 238 234 233 236 237 235 234 234 232 241 248 245 244 241 245 252 253 258 264 266 255 262 275 278 271 277
241 237 235 210 231 241 241 225 234 238 246 248 247 248 248 249 239 221 225 230 238 243 243 240 243 236 234 237 240 236 233 233 238 241 251 248 240 242 243 254 256 259 256 267 268 261 267 285 291
242 243 242 242 236 221 241 220 231 239 242 243 244 243 245 245 245 245 236 243 234 241 245 244 244 243 241 245 241 239 237 238 237 242 249 251 253 255 255 255 246 243 258 252 262 266 270 279 284
243 244 246 242 243 244 233 223 225 236 240 240 245 240 237 238 237 245 237 250 235 241 238 244 243 245 247 245 253 246 242 240 244 240 247 250 252 258 261 259 258 260 256 258 253 251 262 264 260
240 241 245 243 249 242 231 219 225 228 239 241 244 245 247 247 244 239 245 251 254 232 238 243 244 244 242 241 247 244 249 245 240 242 240 248 252 252 258 259 258 261 261 266 270 260 261 262 259
240 237 237 238 241 243 243 249 227 237 244 237 241 240 245 245 234 226 235 235 249 250 235 236 236 239 244 243 241 242 244 243 246 247 248 256 256 256 257 257 260 256 258 260 263 263 266 261 267
236 240 235 237 240 246 238 247 217 223 234 240 240 240 243 247 236 239 236 244 234 247 228 243 237 238 240 243 242 242 244 247 245 247 249 252 255 255 257 259 258 258 260 258 262 262 263 262 260
233 238 237 237 238 240 249 248 232 240 237 239 235 242 241 237 236 235 249 255 244 245 237 231 236 240 241 242 242 244 241 242 244 245 248 247 250 253 254 255 257 258 259 257 261 259 260 266 266
235 232 229 235 229 233 244 243 245 235 242 250 246 236 244 244 244 240 238 236 242 236 242 227 243 236 242 243 243 243 245 245 245 246 246 245 249 249 253 253 254 255 258 260 261 261 262 267 267
234 235 235 238 232 235 230 243 237 239 242 240 245 229 232 240 242 246 245 234 233 233 236 239 235 240 244 242 243 243 243 243 245 246 247 250 251 253 253 250 253 257 259 261 260 261 263 263 265
232 236 235 232 238 232 235 231 237 242 244 244 244 244 246 242 242 241 243 244 243 243 240 236 249 244 234 236 244 241 243 242 244 245 247 249 251 251 254 253 251 252 256 255 257 262 265 265 265
233 234 235 235 238 235 234 239 233 245 242 237 237 245 241 242 244 249 249 246 241 245 231 253 236 248 247 235 238 243 241 242 244 245 247 247 249 251 252 252 255 255 255 257 259 258 260 261 264
237 233 235 237 237 237 235 236 238 238 243 243 246 242 241 243 246 244 240 245 244 249 242 249 240 239 240 252 241 237 240 246 240 242 243 246 244 246 248 252 253 254 254 251 250 252 256 260 262
235 237 236 238 240 239 241 238 240 241 245 244 248 245 248 247 249 248 241 245 249 244 246 242 243 250 245 239 245 240 244 238 246 243 241 245 246 247 246 249 248 248 251 251 253 256 256 254 261
235 236 236 236 239 237 241 243 244 244 244 245 248 250 250 249 248 251 252 252 252 242 243 241 241 247 251 251 245 246 250 235 238 239 241 241 244 247 247 246 249 248 249 252 252 254 259 262 259
213 232 231 234 236 236 238 240 242 243 246 246 248 249 251 252 253 254 254 255 254 254 253 268 246 242 236 235 244 250 242 238 245 239 239 244 243 246 248 248 247 252 257 259 255 257 257 260 261
235 215 226 234 235 236 239 239 242 243 245 246 248 249 252 254 256 257 258 260 258 258 256 255 249 249 245 240 246 247 251 250 247 249 241 241 243 246 245 249 253 250 251 253 256 256 258 259 263
231 222 218 221 222 238 239 241 242 245 247 249 250 252 253 256 258 259 260 260 262 262 270 261 259 258 251 254 253 242 254 245 252 252 243 245 242 244 246 248 250 252 253 255 258 255 257 256 260
224 223 225 225 228 231 234 240 242 245 248 251 253 255 257 258 260 261 261 262 264 268 267 267 266 260 264 263 254 257 251 253 239 255 254 243 244 248 249 250 251 258 255 255 253 253 262 262 262
232 228 230 229 229 231 232 235 240 245 250 253 256 259 261 263 265 266 267 266 267 266 266 267 268 266 254 259 257 255 252 251 256 241 253 258 255 247 254 251 255 254 254 255 257 257 259 262 275
227 225 225 226 227 228 231 234 238 242 247 251 254 256 257 259 262 265 266 266 267 269 269 269 268 266 253 256 259 256 253 254 249 248 245 242 260 265 248 248 252 255 256 257 259 252 258 264 261
228 229 228 228 230 232 233 237 241 244 247 250 255 258 261 263 265 266 269 270 272 272 272 272 271 267 265 262 260 254 255 255 249 247 247 246 248 264 252 258 264 255 247 256 255 259 257 258 265
226 228 230 232 234 236 235 241 244 248 250 252 255 259 262 265 267 269 271 276 279 285 291 303 285 297 289 298 317 276 254 253 251 249 246 246 245 246 262 258 262 265 264 246 241 261 260 265 265
231 229 227 228 231 237 239 241 247 251 253 257 260 262 264 266 268 272 275 284 280 293 294 301 350 328 298 310 282 302 301 302 251 250 246 270 253 249 244 245 257 240 281 262 276 263 258 263 256